SB KEPS @ AMSAT $ORB25343.1 2Line Orbital Elements 25343.AMSAT QST de W1STR AMSAT Orbital Elements for Amateur Satellites in TLE Format From Orbital Analysis Office New England Sci-Tech STEM Education Center Natick MA December 09, 2025 To all radio amateurs These element sets describe the orbits of various satellites in use by the amateur radio community. For details see: www.amsat.org/keplerian-elements-formats/ A daily update of element sets is available at: www.amsat.org/tle/daily-bulletin.txt or without bulletin text: www.amsat.org/tle/dailytle.txt AO-07 1 07530U 74089B 25342.97721419 -.00000044 00000-0 12433-4 0 9995 2 07530 101.9966 349.2054 0012348 133.7164 254.1553 12.53694062336688 UO-11 1 14781U 84021B 25343.16730737 .00002295 00000-0 24282-3 0 9996 2 14781 97.7811 306.2511 0009266 92.0078 268.2201 14.90120661228826 AO-27 1 22825U 93061C 25343.15264587 .00000217 00000-0 99712-4 0 9995 2 22825 98.7151 45.4114 0007430 301.6913 58.3545 14.30874609679822 FO-29 1 24278U 96046B 25343.15008852 .00000012 00000-0 50344-4 0 9997 2 24278 98.5466 212.7673 0349048 229.3066 127.7263 13.53262599447465 GO-32 1 25397U 98043D 25342.91351086 .00000151 00000-0 85481-4 0 9996 2 25397 98.9915 326.0373 0002145 63.4685 296.6713 14.24375251424241 ISS 1 25544U 98067A 25342.86487848 .00012323 00000-0 22804-3 0 9999 2 25544 51.6308 161.6653 0003381 221.9847 138.0883 15.49428834542258 NO-44 1 26931U 01043C 25343.17383145 .00000310 00000-0 14688-3 0 9992 2 26931 67.0517 15.7006 0007416 270.1751 89.8501 14.31851602263248 SO-50 1 27607U 02058C 25343.16248663 .00002800 00000-0 35168-3 0 9996 2 27607 64.5542 356.6550 0072069 297.2605 62.1171 14.82365331236280 CO-55 1 27844U 03031E 25343.14747553 .00000564 00000-0 26384-3 0 9996 2 27844 98.6766 349.0969 0009976 23.5200 336.6434 14.24174175164626 CO-57 1 27848U 03031J 25342.97166608 .00000468 00000-0 22519-3 0 9995 2 27848 98.6794 348.7884 0010172 40.9807 319.2134 14.23482730164317 RS-22 1 27939U 03042A 25343.18714304 .00001707 00000-0 27413-3 0 9999 2 27939 98.3362 157.2924 0011843 146.1948 325.1396 14.72953547187577 CO-58 1 28895U 05043F 25342.97463590 .00002688 00000-0 43703-3 0 9997 2 28895 98.2724 129.9889 0015414 89.4547 270.8425 14.71875730 73768 CO-65 1 32785U 08021C 25343.18604358 .00007994 00000-0 53794-3 0 9998 2 32785 97.8093 316.2239 0008128 326.3796 33.6914 15.06975234956552 CO-66 1 32791U 08021J 25342.90140867 .00021878 00000-0 87670-3 0 9991 2 32791 97.7449 327.9148 0000875 250.5935 109.5207 15.25049276958217 RS-30 1 32953U 08025A 25343.16952976 .00000058 00000-0 34305-3 0 9990 2 32953 82.5019 113.6436 0019165 8.8807 351.2608 12.43171803796081 SRMSAT 1 37841U 11058D 25342.77451106 .00000572 00000-0 16661-3 0 9992 2 37841 19.9702 131.9502 0011706 269.4480 132.3331 14.11509665730882 ZACUBE-1 1 39417U 13066B 25343.12062135 .00005820 00000-0 47630-3 0 9995 2 39417 97.8077 299.6598 0041753 158.4641 201.8349 14.99030530652230 Delfi-N3xt 1 39428U 13066N 25342.71675885 .00010856 00000-0 10171-2 0 9997 2 39428 97.8340 258.6416 0080912 118.4365 242.5037 14.91725269646194 GOMX-1 1 39430U 13066Q 25343.15433656 .00003569 00000-0 54861-3 0 9995 2 39430 97.6589 190.5034 0129961 328.1479 31.1914 14.68557210642010 LO-74 1 39440U 13066AA 25343.11749727 .00007171 00000-0 69180-3 0 9994 2 39440 97.8706 286.7933 0058337 298.0948 61.4381 14.91905889648637 AO-73 1 39444U 13066AE 25342.86753297 .00010318 00000-0 70183-3 0 9998 2 39444 97.8055 306.0985 0040272 128.4651 232.0199 15.05850214650988 DTUSAT-2 1 40030U 14033W 25342.89670217 .00013367 00000-0 78899-3 0 9998 2 40030 98.0761 324.1464 0008945 151.8332 208.3382 15.11637156623905 EO-80 1 40032U 14033Y 25342.90756417 .00011459 00000-0 67570-3 0 9993 2 40032 98.0640 323.5567 0009635 100.1519 260.0797 15.11710069623888 LILACSAT-2 1 40908U 15049K 25343.23796736 .00018835 00000-0 40670-3 0 9995 2 40908 97.4916 8.5121 0006845 211.3765 148.7075 15.44559067566368 IO-86 1 40931U 15052B 25151.18580175 .00001241 00000-0 78118-4 0 9996 2 40931 6.0006 24.0987 0012733 338.8432 21.1169 14.78805930523159 Horyu-4 1 41340U 16012D 25343.14248505 .00056932 00000-0 96863-3 0 9998 2 41340 30.9955 334.6706 0006802 198.7008 161.3391 15.50094690540993 Lapan A3 1 41603U 16040E 25343.23196473 .00005278 00000-0 17567-3 0 9998 2 41603 97.1431 340.9155 0010075 347.3273 12.7714 15.31507429525720 CAS-2T 1 41847U 16066G 25343.15887008 .00001541 00000-0 22659-3 0 9995 2 41847 98.4039 55.9338 0343551 346.0180 13.1677 14.44116821477369 TechnoSat 1 42829U 17042E 25343.00120240 .00005789 00000-0 42876-3 0 9994 2 42829 97.4039 143.3682 0018632 25.3190 334.8945 15.03362384458116 AO-91 1 43017U 17073E 25343.12978751 .00014347 00000-0 67969-3 0 9999 2 43017 97.4938 209.4081 0159889 262.9778 95.3244 15.08737605436699 S-Net D 1 43186U 18014G 25343.18580058 .00007535 00000-0 41501-3 0 9992 2 43186 97.5487 244.3024 0007675 328.2597 31.8171 15.14281481429982 S-Net B 1 43187U 18014H 25342.99555925 .00007928 00000-0 43675-3 0 9996 2 43187 97.5493 244.0941 0008217 322.6954 37.3706 15.14254325429952 S-Net A 1 43188U 18014J 25343.18552361 .00007622 00000-0 41969-3 0 9995 2 43188 97.5502 244.4583 0008099 323.1470 36.9204 15.14288048429987 S-Net C 1 43189U 18014K 25342.73418754 .00009999 00000-0 54974-3 0 9992 2 43189 97.5517 244.0554 0009393 314.8773 45.1695 15.14247870428465 Ten-Koh 1 43677U 18084G 25343.04710500 .00004413 00000-0 34342-3 0 9993 2 43677 98.0743 162.5176 0009437 33.8014 326.3809 15.01779759387617 PO-101 1 43678U 18084H 25343.18192807 .00002404 00000-0 20156-3 0 9999 2 43678 98.1020 166.5016 0007564 54.3846 305.8080 14.99403059387733 QO-100 1 43700U 18090A 25343.14262058 .00000147 00000-0 00000+0 0 9998 2 43700 0.0139 295.1529 0001307 339.0380 241.1338 1.00272909 25772 MinXSS-2 1 43758U 18099A 25343.16843174 .00030975 00000-0 93329-3 0 9998 2 43758 97.4795 50.4849 0008907 225.7320 134.3192 15.34235433384871 AO-95 1 43770U 18099N 25343.11074498 .00014762 00000-0 65312-3 0 9999 2 43770 97.4676 39.4198 0008491 300.9151 59.1249 15.21743571384266 SNUSat 2 1 43782U 18099AA 25343.09969705 .00011859 00000-0 58258-3 0 9998 2 43782 97.4354 34.5682 0009922 236.5920 123.4365 15.18167415384159 SnugLite 1 43784U 18099AC 25343.09882552 .00015189 00000-0 66483-3 0 9993 2 43784 97.4168 34.6017 0002045 220.0259 140.0827 15.22133687384358 ITASat 1 1 43786U 18099AE 25343.13373470 .00009151 00000-0 47909-3 0 9998 2 43786 97.4323 33.5202 0011984 298.0294 61.9726 15.15982199384084 EAGLET 1 1 43790U 18099AJ 25343.12897807 .00005707 00000-0 34453-3 0 9990 2 43790 97.4523 32.7591 0009909 284.3272 75.6857 15.11056748383614 ESEO 1 43792U 18099AL 25343.08774453 .00002037 00000-0 15370-3 0 9998 2 43792 97.4226 23.4219 0010744 261.6733 98.3275 15.03452930383237 JO-97 1 43803U 18099AX 25343.14535124 .00019443 00000-0 74258-3 0 9997 2 43803 97.4415 40.9731 0005634 215.5812 144.5052 15.26659824384561 Suomi 100 1 43804U 18099AY 25343.10821002 .00016471 00000-0 69830-3 0 9995 2 43804 97.4485 39.5969 0010065 225.6325 134.4088 15.23158927384439 ISAT 1 43879U 18111D 25342.77743633 .00048693 00000-0 11619-2 0 9999 2 43879 97.5910 262.3180 0003556 280.9246 79.1600 15.41388176381634 UWE-4 1 43880U 18111E 25342.72013756 .00029120 00000-0 88164-3 0 9996 2 43880 97.5854 259.1337 0007762 296.9375 63.1074 15.34105956381468 Sparrow 1 43881U 18111F 25342.76779928 .00053995 00000-0 11955-2 0 9991 2 43881 97.6091 266.0383 0003742 348.4990 11.6171 15.43606238381758 Prox-1 1 44339U 19036A 25343.01240183 .00017262 00000-0 19414-2 0 9997 2 44339 23.9967 299.4549 0006290 359.4077 0.6413 14.85034769345110 Taurus 1 1 44530U 19059C 25343.22962054 .00006168 00000-0 10588-2 0 9992 2 44530 98.6230 131.8890 0009117 184.9055 175.2061 14.69051131330724 Duchifat 3 1 44854U 19089C 25342.83480616 .09794280 36047-5 11773-2 0 9999 2 44854 36.9155 249.5046 0006919 243.1769 116.8309 16.35254048331523 TO-108 1 44881U 19093C 25343.19927578 .00000863 00000-0 10450-3 0 9992 2 44881 97.7762 54.9099 0013674 357.8270 2.2884 14.86088294323196 FloripaSat 1 1 44885U 19093G 25343.24452186 .00008761 00000-0 68642-3 0 9991 2 44885 97.8045 71.4207 0010810 348.3443 11.7528 15.01191230324123 RS-44 1 44909U 19096E 25343.10500438 .00000039 00000-0 11540-3 0 9995 2 44909 82.5205 106.0236 0216909 228.6107 129.6170 12.79745900278031 SALSAT 1 46495U 20068K 25342.92582193 .00011000 00000-0 42738-3 0 9998 2 46495 97.8781 329.9922 0008724 245.6191 114.4136 15.26221222286309 CSS (TIANHE-1) 1 48274U 21035A 25343.19148778 .00028670 00000-0 36118-3 0 9993 2 48274 41.4681 38.2458 0008971 2.0907 357.9967 15.58939843263477 TUBIN 1 48900U 21059X 25343.18398115 .01012784 62811-3 10149-2 0 9992 2 48900 97.6694 171.0878 0003747 277.5002 82.5856 16.11259058248758 CUTE 1 49263U 21088D 25343.17928020 .00038037 00000-0 50150-3 0 9994 2 49263 97.4350 65.8694 0004414 287.0693 73.0079 15.58316434232744 TeikyoSat 4 1 49396U 21102B 25343.08676029 .00002874 00000-0 18741-3 0 9997 2 49396 97.3902 14.8233 0011014 221.2178 138.8220 15.08617765224057 Z-Sat 1 49399U 21102E 25343.14786140 .00004833 00000-0 25144-3 0 9995 2 49399 97.3579 19.1987 0017036 184.4032 175.7054 15.16378981224624 KOSEN 1 1 49402U 21102H 25343.09091538 .00009689 00000-0 40722-3 0 9997 2 49402 97.3471 24.0567 0015388 153.1160 207.0877 15.23516980225042 HO-113 1 50466U 21131B 25343.17856527 .00000974 00000-0 31623-3 0 9995 2 50466 98.5059 71.6180 0003303 320.2323 39.8623 14.41104878207745 SNUGLITE 2 1 52899U 22065F 25343.11105623 .00002001 00000-0 39250-3 0 9999 2 52899 98.1926 123.6644 0006409 258.6345 101.4137 14.63819345183180 UmKA 1 (RS40S) 1 57172U 23091G 25343.11703613 .00008067 00000-0 39785-3 0 9992 2 57172 97.5340 37.5971 0014893 64.7151 295.5623 15.18089393135146 CubeBel-2 (EU11S) 1 57175U 23091K 25343.17542554 .00016709 00000-0 69307-3 0 9991 2 57175 97.5339 40.1106 0012241 67.5408 292.7123 15.23874770135318 RS-38S 1 57189U 23091Z 25343.17266463 .00018827 00000-0 66566-3 0 9995 2 57189 97.5365 44.5283 0009061 35.0350 325.1484 15.29188234135587 SONATE-2 1 59112U 24043Q 25342.96105155 .00032802 00000-0 70020-3 0 9996 2 59112 97.5335 119.0719 0008951 175.5816 184.5513 15.44768695 98397 MO-122 1 60209U 24125G 25343.09929909 .00036419 00000-0 74576-3 0 9990 2 60209 97.2524 193.4693 0013842 191.9977 168.0945 15.45905039 80040 GRBBeta 1 60237U 24128C 25342.96358895 .00006099 00000-0 43101-3 0 9990 2 60237 61.9891 162.7657 0056351 95.8452 264.9067 15.04691075 77625 Curium One 1 60242U 24128H 25342.88567854 .00011503 00000-0 71482-3 0 9993 2 60242 61.9790 158.0063 0056055 92.8329 267.9182 15.08772359 77708 ROBUSTA-3A 1 60243U 24128J 25343.01991909 .00008971 00000-0 57075-3 0 9999 2 60243 61.9858 159.0490 0056162 90.2887 270.4642 15.08127662 77700 CatSat 1 60246U 24125J 25343.03684068 .00042007 00000-0 10250-2 0 9997 2 60246 97.2318 190.4620 0034001 157.5463 202.7280 15.40137778 77953 HYPERVIEW-1G (RS66S) 1 61772U 24199AP 25343.18662223 .00049602 00000-0 96463-3 0 9997 2 61772 97.3209 212.5777 0007971 254.2328 105.8043 15.47412425105064 AO-123 1 61781U 24199AY 25343.21061957 .00013339 00000-0 43515-3 0 9996 2 61781 97.3248 208.6993 0012880 270.1524 89.8241 15.31830647104808 ZIMSAT 2 1 61783U 24199BA 25343.16722655 .00231317 00000-0 17747-2 0 9996 2 61783 97.3089 215.9562 0003051 212.9727 147.1346 15.71381195108446 HADES-R (SO-124) 1 62690U 25009CK 25342.20678305 .00164727 00000-0 22342-2 0 9998 2 62690 97.3879 64.6580 0001278 229.9698 130.1446 15.57085030 50075 HYDRA-T 1 62692U 25009CM 25342.96054814 .00200968 00000-0 25264-2 0 9990 2 62692 97.3876 65.6314 0001260 247.1322 112.9801 15.58996759 50205 JINJUSat 1B 1 63210U 25052A 25343.18042838 .00020339 00000-0 77999-3 0 9998 2 63210 97.4196 235.3582 0005730 54.9671 305.2104 15.26513164 41043 NUSHSAT 1 1 63211U 25052B 25343.17817809 .00023390 00000-0 86898-3 0 9994 2 63211 97.4181 235.4729 0005780 58.0355 302.1445 15.27535279 41058 TEVEL2-4 1 63213U 25052D 25342.65319882 .00025783 00000-0 97726-3 0 9996 2 63213 97.4102 234.5110 0005213 71.0830 289.0974 15.26855671 40960 TEVEL2-5 1 63214U 25052E 25343.18277110 .00021939 00000-0 83367-3 0 9998 2 63214 97.4097 235.0249 0005154 70.6306 289.5490 15.26805097 41045 TEVEL2-6 1 63215U 25052F 25342.66563980 .00025350 00000-0 96447-3 0 9998 2 63215 97.4100 234.5001 0005238 71.2774 288.9033 15.26734257 40965 TEVEL2-1 1 63217U 25052H 25343.16633679 .00020763 00000-0 79810-3 0 9997 2 63217 97.4078 234.8109 0005452 79.6094 280.5758 15.26432861 41035 TEVEL2-3 1 63218U 25052J 25342.96892917 .00020797 00000-0 79912-3 0 9997 2 63218 97.4076 234.6205 0005452 80.3044 279.8810 15.26444925 41004 TEVEL2-2 1 63219U 25052K 25343.16710968 .00020608 00000-0 79214-3 0 9992 2 63219 97.4073 234.8122 0005486 80.2503 279.9355 15.26434005 41034 TEVEL2-9 1 63237U 25052AD 25342.66732306 .00023505 00000-0 94373-3 0 9998 2 63237 97.4138 234.0288 0009204 92.8432 267.3860 15.24925853 40926 TEVEL2-7 1 63238U 25052AE 25342.68083538 .00022811 00000-0 92001-3 0 9992 2 63238 97.4141 234.0171 0009360 92.8183 267.4126 15.24779252 40924 TEVEL2-8 1 63239U 25052AF 25342.68640467 .00022915 00000-0 92488-3 0 9997 2 63239 97.4138 234.0077 0009396 93.2743 266.9570 15.24753662 40926 HYDRA-W 1 63490U 25052BL 25342.67591005 .00082503 00000-0 20068-2 0 9991 2 63490 97.4063 236.4002 0011672 82.0637 278.1933 15.40590092 41095 HADES-ICM (SO-125) 1 63492U 25052BN 25343.18589904 .00073825 00000-0 19062-2 0 9994 2 63492 97.4068 236.6593 0011822 83.6847 276.5744 15.38801274 41159 Dragonfly 1 65729U 98067XH 25342.73110563 .00167478 00000-0 13272-2 0 9991 2 65729 51.6249 156.2650 0006525 251.4950 108.5339 15.70229086 12537 RSP-03 1 65732U 98067XL 25342.78755584 .00139916 00000-0 12545-2 0 9996 2 65732 51.6260 156.6485 0006171 224.9015 135.1483 15.67324417 12545 GHS-01 1 65733U 98067XM 25343.00731220 .00212660 00000-0 15001-2 0 9992 2 65733 51.6283 154.3653 0006877 253.5848 106.4394 15.72845555 12592 BOTAN 1 65942U 98067XP 25342.68847922 .00112002 00000-0 12578-2 0 9999 2 65942 51.6288 159.7433 0003645 204.4965 155.5857 15.61763471 9239 SPIRONE 1 66657U 25274H 25342.85561376 .00003729 00000-0 36917-3 0 9997 2 66657 97.7386 270.1280 0010976 290.7866 69.2177 14.92414576 1829 K-HERO 1 66660U 25274L 25342.85145251 .00003841 00000-0 37508-3 0 9993 2 66660 97.7392 270.1344 0012908 295.6722 64.3164 14.92924014 1828 CEVROSAT1 1 98526U 25248E 25313.13142326 .00000000 00000-0 19360-3 0 02 2 98526 45.4084 218.4764 0001315 254.8982 242.1062 15.17981583 02 /EX